#timestamp,LO_Frequency,Hit,StdDev 
1561312815.0,286046993.7,P
1561312815.9,286046993.7,P
1561312835.8,286046996.4,P
1561312855.6,286046991.3,Y
1561312875.5,286046993.5,P
1561312895.3,286046992.1,P
1561312915.1,286046992.1,P
1561312935.9,286046996.4,Y
1561312955.7,286047004.2,P
1561312975.6,286047005.3,N
1561312995.4,286047009.1,N
1561313015.2,286047009.2,N
1561313035.1,286047008.1,N
1561313036.0,286047008.1,N
1561313055.8,286047012.0,N
1561313075.6,286047009.4,N
1561313095.5,286047010.1,N
1561313115.3,286047008.1,N
1561313135.2,286047007.7,N
1561313155.9,286047006.5,N
1561313175.7,286047007.9,N
1561313195.6,286047009.7,N
1561313215.4,286047011.3,N
1561313235.3,286047014.0,Y
1561313255.1,286047004.0,P
1561313256.0,286047004.0,N
1561313275.8,286046998.1,N
1561313295.7,286047000.2,N
1561313315.5,286046995.2,N
1561313335.4,286046997.5,N
1561313355.2,286046997.3,N
1561313375.0,286046999.0,N
1561313375.9,286046999.0,N
1561313395.8,286047000.8,N
1561313415.6,286047001.1,N
1561313435.4,286047000.5,N
1561313455.3,286046999.9,N
1561313475.1,286047002.1,N
1561313495.9,286046999.9,N
1561313515.7,286047002.3,N
1561313535.5,286047002.2,N
1561313555.4,286047002.9,N
1561313575.2,286047003.6,N
1561313595.0,286047005.9,N
1561313596.0,286047005.9,N
1561313615.8,286047003.4,N
1561313635.6,286047004.7,N
1561313655.5,286047006.0,N
1561313675.3,286047006.8,N
1561313695.1,286047006.2,N
1561313715.9,286047008.8,N
1561313735.7,286047010.7,Y
1561313755.6,286047009.1,P
1561313775.4,286047007.7,N
1561313795.2,286047010.6,P
1561313815.1,286047008.9,N
1561313816.0,286047008.9,Y
1561313835.8,286047002.4,P
1561313855.6,286047000.4,N
1561313875.5,286047000.9,N
1561313895.3,286046999.9,N
1561313915.2,286047004.2,N
1561313935.9,286047001.5,N
1561313955.7,286047003.1,N
1561313975.6,286047004.0,N
1561313995.4,286047002.9,N
1561314015.2,286047001.5,N
1561314035.1,286047003.2,N
1561314036.0,286047003.2,N
1561314055.8,286047003.9,N
1561314075.7,286047003.9,N
1561314095.5,286047002.0,N
1561314115.3,286047000.1,N
1561314135.2,286047002.1,N
1561314155.0,286047003.6,N
1561314155.9,286047003.6,N
1561314175.8,286047002.4,N
1561314195.6,286047001.8,N
1561314215.4,286047001.6,N
1561314235.3,286047001.3,N
1561314255.1,286047001.3,N
1561314275.8,286047003.8,N
1561314295.7,286047005.6,Y
1561314315.5,286047000.1,P
1561314335.4,286047000.6,N
1561314355.2,286047002.7,N
1561314375.0,286047001.7,N
1561314375.9,286047001.7,N
1561314395.8,286047003.8,Y
1561314415.6,286047002.3,P
1561314435.5,286047001.6,P
1561314455.3,286047004.3,P
1561314475.1,286047003.0,N
1561314495.9,286047005.3,Y
1561314515.7,286047004.2,P
1561314535.5,286047004.4,P
1561314555.4,286047003.4,P
1561314575.2,286047003.6,Y
1561314595.1,286047000.8,P
1561314596.0,286047000.8,N
1561314615.8,286047000.5,N
1561314635.6,286047000.2,N
1561314655.5,286047000.3,N
1561314675.3,286047000.2,N
1561314695.2,286047000.1,N
1561314715.9,286047002.5,N
1561314735.7,286046999.9,N
1561314755.6,286047002.2,N
1561314775.4,286047001.4,N
1561314795.3,286047001.4,N
1561314815.1,286047001.3,N
1561314816.0,286047001.3,N
1561314835.8,286047003.8,Y
1561314855.7,286046999.8,P
1561314875.5,286047002.7,P
1561314895.3,286047000.4,N
1561314915.2,286047000.3,N
1561314935.0,286046998.2,N
1561314935.9,286046998.2,N
1561314955.8,286046998.2,N
1561314975.6,286047000.0,N
1561314995.4,286047002.4,N
1561315015.3,286047002.8,N
1561315035.1,286047001.5,N
1561315055.9,286047003.9,N
1561315075.7,286047003.2,N
1561315095.5,286047003.1,N
1561315115.4,286047003.6,N
1561315135.2,286047005.8,Y
1561315155.0,286047003.5,P
1561315155.9,286047003.5,P
1561315175.8,286047003.7,P
1561315195.6,286047006.0,Y
1561315215.5,286047000.0,P
1561315235.3,286047000.1,N
1561315255.1,286046999.9,N
1561315275.9,286047000.7,N
1561315295.7,286047002.5,N
1561315315.5,286047001.9,N
1561315335.4,286047001.7,N
1561315355.2,286047004.1,Y
1561315375.1,286047002.5,P
1561315376.0,286047002.5,P
1561315395.8,286047002.1,P
1561315415.6,286047000.0,N
1561315435.5,286047004.0,Y
1561315455.3,286047003.5,P
1561315475.2,286047002.4,N
1561315495.9,286047001.7,N
1561315515.7,286047001.5,N
1561315535.6,286047000.8,N
1561315555.4,286046996.7,Y
1561315575.3,286046995.5,P
1561315595.1,286046998.3,N
1561315596.0,286046998.3,N
1561315615.8,286047002.3,N
1561315635.7,286047000.4,N
1561315655.5,286047000.5,N
1561315675.4,286047000.3,N
1561315695.2,286047002.5,N
1561315715.0,286047002.3,N
1561315715.9,286047002.3,N
1561315735.8,286047004.0,N
1561315755.6,286047003.6,N
1561315775.4,286047007.2,Y
1561315795.3,286047004.6,P
1561315815.1,286047007.2,P
1561315835.9,286047008.8,P
1561315855.7,286047007.9,N
1561315875.5,286047007.9,N
1561315895.4,286047006.9,N
1561315915.2,286047004.2,N
1561315935.0,286047005.4,N
1561315936.0,286047005.4,N
1561315955.8,286047008.4,Y
1561315975.6,286047002.3,P
1561315995.5,286047001.3,N
1561316015.3,286047002.9,N
1561316035.1,286047003.2,N
1561316055.9,286047005.4,Y
1561316075.7,286046998.1,P
1561316095.6,286046999.0,N
1561316115.4,286047000.4,N
1561316135.2,286047001.4,N
1561316155.1,286047002.6,N
1561316156.0,286047002.6,N
1561316175.8,286046998.5,N
1561316195.7,286046993.4,Y
1561316215.5,286046994.9,P
1561316235.3,286046998.4,N
1561316255.2,286047002.5,N
1561316275.0,286047001.9,N
1561316275.9,286047001.9,N
1561316295.7,286047001.5,N
1561316315.6,286046997.4,N
1561316335.4,286046998.0,N
1561316355.3,286046999.0,N
1561316375.1,286047002.8,N
1561316395.8,286047004.3,N
